ROMMA est une association bénévole à but non lucratif. Votre soutien est indispensable : ADHERER à ROMMA ou FAIRE un DON

Crest - (26, Drôme)

Vallée de la Drôme (315 m)   Longitude: 5°2' E   Latitude: 44°44' N Station partenaire n°62
 

Détail journalier du     <<     >>

Température Precipitation Humidité Pression Vent Dir Rafale Dir. rafale Ensol.
Heure (°C) (mm) (%) (hPa) (km/h) (km/h) (min)
01:00 19.506010151SE8SE0
02:00 20.605610161SE10SE0
03:00 21.105810162SE11SE0
04:00 18.506710161SE8SE0
05:00 18.606610161---6E0
06:00 17.806810161SE6SE0
07:00 18.806310162ESE10E0
08:00 19.106210162SE8SE41
09:00 20.305910162SE11ESE6
10:00 23.204910164ESE11ESE37
11:00 26.104310163ESE11ESE30
12:00 26.804410163SE13SSE6
13:00 26.704510165SE21SE0
14:00 26.404610164SE19SE0
15:00 28.604010164SE16SSE16
16:00 29.803610154SE16SE46
17:00 30.103510146ESE18ESE60
18:00 29.103710146ESE19SE45
19:00 28.303610145SE16SE0
20:00 27.304110154SE18SE0
21:00 25.704710153SE16SE2
22:00 24.805110152SE13SE0
23:00 23.805510161SE6SE0
minuit 22.306010161SE5SE0

Graphique du 27-08-2019

 

Serveur OMMA